Flag for Finland Weather past 2 weeks in Rovaniemi, Finland

Now
52 °F

Sprinkles. Cloudy.


Feels Like: 48 °F
Forecast: 51 / 67 °F
Wind: 12 mph from Northeast

Location: Rovaniemi Airport

Current Time: Jul 29, 2014 at 8:06:43 PM

Latest Report: Jul 29, 2014 at 7:20 PM


Visibility: N/A

Pressure: 29.89 "Hg

Humidity: 94%

Dew point: 50 °F

Location of RovaniemiLocation

Historic Weather in Rovaniemi — Graph

°F

Rovaniemi temperature yesterday

Maximum temperature yesterday: 72 °F (at 4:50 PM)
Minimum temperature yesterday: 57 °F (at 11:50 PM)
Average temperature yesterday: 65 °F

Past Weeks' High & Low Weather Summary

 TemperatureHumidityPressure
High82 °F (Jul 22, 1:20 PM)100% (Jul 16, 9:50 PM)30.24 "Hg (Jul 16, 9:50 PM)
Low54 °F (Jul 29, 1:20 PM)30% (Jul 21, 3:20 PM)29.71 "Hg (Jul 28, 9:50 PM)
Average68 °F70%30.07 "Hg
* Reported Jul 14 6:20 PM — Jul 29 6:50 PM, Rovaniemi, Weather by CustomWeather, © 2014

Note: Actual official high and low records may vary slightly from our data, if they occured in-between our weather recording intervals... More about our weather records

Advertising

Rovaniemi weather history for previous 24 hours

 ConditionsComfort  
Time TempWeatherWind HumidityBarometerVisibility
6:50 PM
Jul 29
54 °FSprinkles. Partly sunny.12 mph88%29.89 "Hg4 mi
6:20 PM54 °FCloudy.13 mph88%29.86 "HgN/A
5:50 PM54 °FMostly cloudy.15 mph88%29.86 "HgN/A
5:20 PM54 °FCloudy.16 mph88%29.86 "HgN/A
4:50 PM55 °FBroken clouds.15 mph82%29.86 "HgN/A
4:20 PM55 °FBroken clouds.17 mph88%29.86 "HgN/A
3:50 PM55 °FCloudy.20 mph88%29.83 "HgN/A
3:20 PM54 °FScattered showers. Mostly cloudy.20 mph94%29.83 "HgN/A
2:50 PM54 °FScattered showers. Mostly cloudy.13 mph94%29.83 "HgN/A
2:20 PM54 °FScattered showers. Overcast.14 mph94%29.83 "HgN/A
1:50 PM54 °FLight rain. Mostly cloudy.13 mph94%29.83 "HgN/A
1:20 PM54 °FLight rain. Mostly cloudy.15 mph94%29.83 "HgN/A
12:50 PM55 °FLight rain. Overcast.16 mph88%29.83 "HgN/A
12:20 PM55 °FScattered showers. Broken clouds.15 mph94%29.80 "HgN/A
11:50 AM55 °FLight rain. Mostly cloudy.15 mph94%29.80 "HgN/A
11:20 AM55 °FLight rain. Mostly cloudy.15 mph94%29.80 "HgN/A
10:50 AM55 °FLight rain. Cloudy.13 mph94%29.80 "HgN/A
10:20 AM55 °FMostly cloudy.15 mph94%29.77 "Hg6 mi
9:50 AM55 °FMostly cloudy.15 mph94%29.77 "HgN/A
9:20 AM55 °FMostly cloudy.15 mph94%29.77 "HgN/A
8:50 AM55 °FMostly cloudy.15 mph100%29.77 "HgN/A
8:20 AM55 °FMore clouds than sun.16 mph100%29.77 "HgN/A
7:50 AM55 °FMostly cloudy.13 mph100%29.77 "HgN/A
7:20 AM57 °FPartly sunny.12 mph94%29.74 "HgN/A
6:50 AM57 °FMostly cloudy.12 mph100%29.74 "HgN/A
6:20 AM59 °FCloudy.13 mph94%29.74 "HgN/A
5:50 AM59 °FMostly cloudy.8 mph100%29.74 "HgN/A
5:20 AM59 °FPartly sunny.7 mph100%29.74 "HgN/A
4:50 AM59 °FBroken clouds.7 mph100%29.74 "HgN/A
4:20 AM59 °FPassing clouds.6 mph100%29.71 "Hg4 mi
3:50 AM59 °FFog.6 mph100%29.74 "Hg1 mi
3:20 AM59 °FPartly cloudy.5 mph100%29.74 "HgN/A
2:50 AM57 °FPassing clouds.5 mph100%29.74 "HgN/A
2:20 AM57 °FFog.5 mph100%29.74 "Hg2 mi
1:50 AM57 °FScattered showers. Fog.6 mph100%29.74 "Hg1 mi
1:20 AM57 °FPassing clouds.7 mph100%29.74 "HgN/A
12:50 AM57 °FRain showers. Partly cloudy.5 mph100%29.74 "Hg2 mi
12:20 AM57 °FPartly cloudy.7 mph100%29.74 "Hg5 mi
11:50 PM
Jul 28
57 °FSunny.2 mph100%29.71 "Hg10 mi
11:20 PM59 °FSunny.6 mph94%29.71 "Hg10 mi
10:50 PM59 °FScattered clouds.9 mph94%29.71 "HgN/A
10:20 PM59 °FLight rain. Partly sunny.9 mph94%29.71 "HgN/A
9:50 PM59 °FRain. Mostly cloudy.10 mph94%29.71 "Hg6 mi
9:20 PM59 °FHeavy rain. Cloudy.14 mph94%29.74 "Hg2 mi
8:50 PM63 °FLight rain. More clouds than sun.7 mph88%29.74 "HgN/A
8:20 PM64 °FLight rain. Partly sunny.5 mph88%29.74 "HgN/A
Weather by CustomWeather, © 2014

See weather overviewHow to use our weather pages